Regional Weather Roundup
Issued by NWS

Home | Current Version | Previous Version | Graphics & Text | Print | Product List | Glossary On
Versions: 1 2 3 4 5 6 7 8 9 10 11 12 13 14 15 16 17 18 19 20 21 22 23 24 25 26 27 28 29 30 31 32 33 34 35 36 37 38 39 40 41 42 43 44 45 46 47 48 49 50
416
ASUS43 KLOT 221208
RWRIL

ILLINOIS REGIONAL WEATHER ROUNDUP
NATIONAL WEATHER SERVICE CHICAGO/ROMEOVILLE IL
700 AM CDT TUE AUG 22 2017

NOTE: "FAIR" INDICATES FEW OR NO CLOUDS BELOW 12,000 FEET WITH NO
SIGNIFICANT WEATHER AND/OR OBSTRUCTIONS TO VISIBILITY.

* THESE STATIONS ARE NOT UNDER NWS QUALITY CONTROL. THEY ALSO MAY NOT
  REPORT WEATHER SUCH AS PRECIPITATION OR FOG.

ILZ001-002-007-009-015-016-024-221300-
NORTHWEST ILLINOIS

CITY           SKY/WX    TMP DP  RH WIND       PRES   REMARKS
MOLINE         CLOUDY    68  65  90 W6        29.93R
6HR MIN TEMP:  68; 6HR MAX TEMP:  72; 6HR PCP:  0.09;

STERLING*      MOCLDY    67  65  93 W7        29.92R
SAVANNA*       CLOUDY    67  64  90 W6        29.91R
$$

ILZ003-004-008-010-011-017-018-221300-
NORTH CENTRAL ILLINOIS

CITY           SKY/WX    TMP DP  RH WIND       PRES   REMARKS
ROCKFORD       CLOUDY    68  64  87 W8        29.90R
6HR MIN TEMP:  67; 6HR MAX TEMP:  73;

FREEPORT*      CLOUDY    65  64  94 W6        29.92R
ROCHELLE*      MOCLDY    67  66  97 W9        29.91R
DE KALB*       CLOUDY    69  67  95 W10       29.90S
PERU*          CLOUDY    67  66  94 W7        29.92S
$$

ILZ005-006-012>014-019>023-221300-
NORTHEAST ILLINOIS

CITY           SKY/WX    TMP DP  RH WIND       PRES   REMARKS
CHICAGO-OHARE  CLOUDY    72  66  81 W9        29.88R
6HR MIN TEMP:  71; 6HR MAX TEMP:  75; 6HR PCP:  0.02;

CHICAGO-MIDWAY CLOUDY    71  68  90 W9        29.88S
6HR MIN TEMP:  71; 6HR MAX TEMP:  74; 6HR PCP:  0.05;

AURORA         CLOUDY    69  68  96 SW7       29.90R
6HR MIN TEMP:  69; 6HR MAX TEMP:  74; 6HR PCP:  0.06;

LANSING*       MOCLDY    69  65  88 SW10      29.90S
JOLIET*        CLOUDY    71  69  95 SW7       29.91S
WAUKEGAN       CLOUDY    70  64  81 SW7       29.83S
6HR MIN TEMP:  70; 6HR MAX TEMP:  75; 6HR PCP:  0.01;

DUPAGE AIRPORT CLOUDY    69  69 100 SW6       29.88R
6HR MIN TEMP:  69; 6HR MAX TEMP:  73; 6HR PCP:  0.03;

KANKAKEE*      LGT RAIN  69  68  98 SW7       29.92S
WHEELING       CLOUDY    71  66  84 W9        29.88R
6HR MIN TEMP:  71; 6HR MAX TEMP:  75; 6HR PCP:  0.01;

MORRIS*        CLOUDY    69  67  94 SW6       29.91R
ROMEOVILLE*    CLOUDY    69  65  89 SW9       29.90S
NORTHERLY ISL    N/A     71  67  87 SW9         N/A
$$

LMZ740>746-221300-
SOUTHERN LAKE MICHIGAN

STATION/POSITION SKY/WX   TEMP    WIND        PRES    VSBY  WAVE
                          AIR SEA DIR/SP/G                  HT/PER
                          (F)     (DEG/KT/KT) (MB)    (MI)  (FT/S)
SOUTHERN BUOY              73 72  290/ 17/ 21 1008.9          3/ 5
WILMETTE HARBOR            72 74  240/ 12/ 14   N/A           1/ 3
HARRISON CRIB              74     260/ 15/ 19   N/A
CALUMET HARBOR             70     210/  5/ 11 1011.0F
BURNS HARBOR               71     220/ 13/ 16 1012.2S
MICHIGAN CITY              70     210/ 19/ 21   N/A
MICHIGAN CITY 6N           72 74  240/ 16/ 21   N/A           4/ 4
ST. JOSEPH                 73 73  250/ 17/ 21 1010.9          5/ 5
$$

ILZ025>027-034>036-040-047-049-050-058-095>099-221300-
WEST-CENTRAL ILLINOIS

CITY           SKY/WX    TMP DP  RH WIND       PRES   REMARKS
QUINCY         CLOUDY    68  65  90 N14G20    29.94R
GALESBURG*     CLOUDY    66  66 100 W5        29.96S
MACOMB*        CLOUDY    67  66  96 NW9       29.97S
JACKSONVILLE*  LGT RAIN  67  67  98 S6        29.92F
PITTSFIELD*    LGT RAIN  67  67  99 S3        29.94S
$$

ILZ028>032-037-038-041>044-048-051>054-059>061-221300-
CENTRAL ILLINOIS

CITY           SKY/WX    TMP DP  RH WIND       PRES   REMARKS
PONTIAC        CLOUDY    70  69  98 NW7       29.95R
BLOOMINGTON    CLOUDY    67  66  97 S8        29.94F
DECATUR        LGT RAIN  69  68  96 S3        29.95F
PEORIA         LGT RAIN  68  68 100 N3        29.95R
6HR MIN TEMP:  68; 6HR MAX TEMP:  75; 6HR PCP:  0.38;

LACON*         CLOUDY    67  67 100 SW3       29.92F
LINCOLN*       LGT RAIN  69  69 100 S5        29.92F
SPRINGFIELD    LGT RAIN  70  69  97 S6        29.92F
6HR MIN TEMP:  70; 6HR MAX TEMP:  77; 6HR PCP:  0.52;

TAYLORVILLE    LGT RAIN  69  69 100 CALM      29.95F
6HR MIN TEMP:  69; 6HR MAX TEMP:  75; 6HR PCP:  0.60;

$$

ILZ033-039-045-046-055>057-062-063-221300-
EAST-CENTRAL ILLINOIS

CITY           SKY/WX    TMP DP  RH WIND       PRES   REMARKS
CHAMPAIGN      LGT RAIN  69  68  96 SW3       29.96S
RANTOUL*       LGT RAIN  69  69  99 W5        29.95R
MATTOON        LGT RAIN  70  70 100 NW3       29.96S
PARIS*         LGT RAIN  70  70  98 NW3       29.98R
$$

ILZ079-100>102-221300-
SOUTHWEST ILLINOIS

CITY           SKY/WX    TMP DP  RH WIND       PRES   REMARKS
ALTON          LGT RAIN  70  70 100 CALM      29.97S
BELLEVILLE     LGT RAIN  72  70  94 CALM      29.99R VSB 3/4
CAHOKIA*       RAIN      72  69  90 NE3       29.97F
SPARTA*        CLOUDY    77  73  87 N8        29.98R
$$

ILZ064>066-069>071-074>076-080>082-084>086-088>090-092>094-221300-
SOUTH-CENTRAL ILLINOIS

CITY           SKY/WX    TMP DP  RH WIND       PRES   REMARKS
CARBONDALE     CLOUDY    78  75  90 SW7       29.97S HX  81
6HR MIN TEMP:  73; 6HR MAX TEMP:  78;

CAIRO*         CLOUDY    76  74  95 S6        29.99S
EFFINGHAM*     LGT RAIN  71  71 100 NW3       29.98F
MARION         MOCLDY    79  77  94 S7        29.99R HX  83
MT. VERNON       N/A     76  72  87 VRB5      29.98R
CENTRALIA*     CLOUDY    73  70  91 CALM      29.97S
SALEM*         HVY RAIN  72  70  93 CALM      29.97F
METROPOLIS*    PTCLDY    77  75  92 SW6       30.00F
$$

ILZ067-068-072-073-078-083-087-091-221300-
SOUTHEAST ILLINOIS

CITY           SKY/WX    TMP DP  RH WIND       PRES   REMARKS
LAWRENCEVILLE  CLOUDY    77  74  90 W10       29.97R
FLORA*         LGT RAIN  73  71  93 NW5       29.99S
FAIRFIELD*     CLOUDY    74  70  88 N3G16     29.97R
HARRISBURG*    MOCLDY    76  75  96 SW6       29.98S
ROBINSON*      CLOUDY    73  71  94 NW12      29.97R
CARMI*         MOCLDY    74  74  99 S5        29.97S FOG
$$

ABBREVIATIONS USED IN REMARKS
   TC - TEMPERATURE IN CELSIUS
  WCI - WIND CHILL INDEX
   HX - HEAT INDEX
  VSB - VISIBILITY
$$





USA.gov is the U.S. government's official web portal to all federal, state and local government web resources and services.